Погода в Кыре

Погода в Кыре : погода сейчас, прогноз погоды и архив. Всё, что Вы хотите узнать о погоде в Кыре!

Хотите узнать прогноз погоды в Кыре? Тогда Вам сюда: Погода в Кыре

Поиск расширенной информации на нашем сайте:

Другие новости

Новости СМИ2

Главная страница сайта

Новости сайта

03.07.2017

Напоминаем, что на нашем специализированном сайте Метеоцентр.Азия вы можете получить высокодетализированные автоматические прогнозы погоды по пунктам России, СНГ и мира в авиационном формате (включающие направление и скорость ветра, видимость, явления погоды, количество и форму облачности, нижнюю и верхнюю границу облачности).


Погода в Кыре - сегодня

Время (UTC), дата Ветер
(°,м/с) 
Видим.   Явления Облачность Т
(°С)
Тd
(°С)
f(%) Тe
(°С)
Pmin
(гПа)
dP
(гПа)
Po
(мм)
O2
(г/м3)
Тmin Tmax R s Состояние
почвы
15 22.09.18 250 (З) н/о    4/0 средняя, верхняя 
[Ac trans|Ci fib]
+4.8 +1 76 +4  1024.1  0.8  688  272           
18 22.09.18 тихо ()   н/о    3/0 средняя 
[Ac lent]
+3.6 +0.1 78 +4  1025.3  0.7  689  274           
21 22.09.18 230 (ЮЗ) н/о    3/0 средняя 
[Ac lent]
+0.9 -0.9 88 +2  1027  0.5  689  277           
00 23.09.18 310 (СЗ) 20000 м    3/0 верхняя 
[Ci]
+3.5 +0.5 81 +3  1027  690  274  -0.8        влажная 
03 23.09.18 170 (Ю) 20000 м    3/3 1000 м верхняя 
[Cu med, cong|Ci fib]
+12.2 +0.7 45 +13  1022.9  -0.6  689  266           
06 23.09.18 260 (З) 20000 м    8/4 1000 м кучево-дожд., средняя 
[Cb cap|Ac trans]
+14.5 -1.7 33 +16  1019.7  -2.1  688  263           
09 23.09.18 120 (ЮВ) 20000 м    8/3 1000 м кучево-дожд., средняя 
[Cb cap|Ac trans]
+14.8 -3.3 28 +16  1018.9  -0.7  687  263           
15 23.09.18 190 (Ю) н/о    3/0 верхняя 
[Ci fib]
+0.7 -1.4 86 +1  1025.9  0.6  688  277           
18 23.09.18 тихо ()   н/о    3/0 верхняя 
[Ci fib]
-1.5 -2.9 90 -2  1027  0.2  688  279           
21 23.09.18 360 (С) н/о    3/0 верхняя 
[Ci fib]
-3.2 -4.3 92 -3  1027.5  -0.2  688  281           
00 24.09.18 260 (З) 20000 м    3/0 верхняя 
[Ci fib]
-0.9 -2.8 87 1026.6  688  278  -4.4        сухая 
03 24.09.18 050 (СВ) 20000 м    ясно 
+9.4 +0.6 54 +10  1021  -1.2  687  267           
06 24.09.18 100 (В) 20000 м    ясно 
+16.6 -0.4 31 +17  1015.4  -2.6  685  260           
09 24.09.18 230 (ЮЗ) 20000 м    4/0 верхняя 
[Ci fib]
+16.5 -1.7 29 +18  1014.4  -0.9  684  260           
15 24.09.18 310 (СЗ) н/о    3/0 средняя 
[Ac lent]
+1.5 -0.6 86 +2  1021.2  0.3  685  274           
18 24.09.18 тихо ()   н/о    3/0 средняя 
[Ac lent]
-0.3 -1.9 89 -0  1022.3  0.3  685  277           
21 24.09.18 тихо ()   н/о    3/0 средняя, верхняя 
[Ac trans|Ci fib]
-1.9 -3.2 91 -2  1023.4  0.3  686  278           
00 25.09.18 тихо ()   20000 м    3/0 средняя, верхняя 
[Ac lent|Ci fib]
+1.1 -1.7 82 +1  1023  0.8  686  275  -2.3        сухая 
03 25.09.18 250 (З) 20000 м    3/0 верхняя 
[Ci fib]
+10.7 +0.5 49 +12  1018.4  -0.7  686  266           
06 25.09.18 140 (ЮВ) 20000 м    1/1 1000 м 
[Cu hum]
+18.6 -3.2 23 +20  1013.6  -1.7  684  258           
09 25.09.18 120 (ЮВ) 20000 м    3/3 1000 м 
[Cu med, cong]
+19 -2.1 24 +20  1012.6  -0.7  684  258           
15 25.09.18 080 (В) н/о    3/0 средняя, верхняя 
[Ac trans|Ci fib]
+2.4 -0.8 79 +3  1020.8  0.9  685  274           
18 25.09.18 тихо ()   н/о    4/0 средняя 
[Ac trans]
+1.8 -1.4 79 +2  1021.4  0.2  685  274           
21 25.09.18 тихо ()   н/о    4/0 средняя, верхняя 
[Ac trans|Ci fib]
-1.5 -3.2 88 -2  1022.7  -0.1  685  278           
00 26.09.18 тихо ()   20000 м    8/3 1000 м средняя, верхняя 
[Sc|Ac trans|Ci fib]
+1.8 -1.7 78 +2  1021.2  685  274  -2.2        сухая 
Время (UTC), дата Ветер
(°,м/с) 
Видим.   Явления Облачность Т
(°С)
Тd
(°С)
f(%) Тe
(°С)
Pmin
(гПа)
dP
(гПа)
Po
(мм)
O2
(г/м3)
Тmin Tmax R s Состояние
почвы

Для получения пояснительной информации подведите курсор к названию столбца.

ПОГОДА в Кыре - архив

Всё, что Вы хотите узнать о погоде в Кыре - удобно и подробно!

Выберите нужную дату (начиная с 1 января 2015* года) и нажмите кнопку "Найти".
Будут отображены архивные сводки погоды по пункту Кыра, начиная с указанной даты.


Отображать данные в формате CSV (для использования в таблицах Excel)


Внимание! Наш архив погоды предназначен исключительно для личного некоммерческого использования в познавательных целях. Если Вам необходимы официальные справки о состоянии погоды (для производственных, юридических, коммерческих и т.п. целей), обращайтесь в органы Росгидромета.

*Примечание: данная дата относится к архиву по метеостанциям СССР (Россия, СНГ, Балтия).
Архив по метеостанциям Зарубежной Европы и Азии (кроме Китая) хранится 10 дней, по другим регионам земного шара (Китай, Африка, Америка, Австралия, Океания) - 1 день.

Кыра - район местоположения метеостанции


Название, широта, долгота, высота метеостанции:
Кыра 49.6°ш. 112°д. 908 м над ур. моря [Российская Федерация]

Дополнительная информация

В oтличие oт бoльшинства пoгoдных сайтoв мы публикуем пoдрoбную метеoинфoрмацию в детальнoм прoфессиoнальнoм фoрмате.

Характеристики температуры и влажнoсти вoздуха измеряются на высoте 2 м в тени вдали oт зданий и деревьев.
Скoрoсть ветра измеряется на высoте 10 м (на урoвне рoста челoвека скoрoсть ветра ниже в 1.5-2 раза). Если метеoстанция нахoдится в гoрoде или в лесу, тo скoрoсть ветра занижена на 2-4 м/с пo сравнению с oткрытым местoм. Скoрoсть ветра над акватoриями крупных рек и oзёр, а также на вершинах хoлмoв на 2-5 м/с выше, чем в oбычных услoвиях.
Атмoсфернoе давление в разных тoчках местнoсти мoжет значительнo oтличаться oт давления на метеoстанции, в зависимoсти oт услoвий рельефа (при пoдъёме на 10 м давление пoнижается примернo на 1 мм рт.ст.).